Regional Weather Roundup
Issued by NWS

Home | Current Version | Previous Version | Graphics & Text | Print | Product List | Glossary On
Versions: 1 2 3 4 5 6 7 8 9 10 11 12 13 14 15 16 17 18 19 20 21 22 23 24 25 26 27 28 29 30 31 32 33 34 35 36 37 38 39 40 41 42 43 44 45 46 47 48 49 50
000
ASUS43 KMKX 242300
RWRWI

WISCONSIN REGIONAL WEATHER ROUNDUP
NATIONAL WEATHER SERVICE MILWAUKEE/SULLIVAN WI
600 PM CDT MON APR 24 2017

NOTE: "FAIR" INDICATES FEW OR NO CLOUDS BELOW 12,000 FEET WITH NO
SIGNIFICANT WEATHER AND/OR OBSTRUCTIONS TO VISIBILITY.

WIZ001-002-006>008-014>016-023>028-250000-
NORTHWEST WISCONSIN

CITY           SKY/WX    TMP DP  RH WIND       PRES   REMARKS
SUPERIOR ARPT  CLOUDY    37  34  89 E21G31    29.72S WCI  26
ASHLAND        CLOUDY    41  33  73 NE15G23   29.72S
HAYWARD        CLOUDY    64  30  27 S13       29.66F
SIREN          CLOUDY    66  30  26 S13G18    29.63S
CUMBERLAND     CLOUDY    63  32  31 SE12      29.65F
RICE LAKE      CLOUDY    66  30  26 SE10G23   29.66F
CHETEK         CLOUDY    66  32  28 S13G23    29.67R
LADYSMITH      CLOUDY    65  32  28 SE13G20   29.71S
EAU CLAIRE     NOT AVBL
MENOMONIE      CLOUDY    68  33  27 SE12      29.65F
NEW RICHMOND   NOT AVBL
OSCEOLA        CLOUDY    67  29  24 S12G26    29.64F
$$

WIZ003>005-009-010-017-018-250000-
NORTH CENTRAL WISCONSIN

CITY           SKY/WX    TMP DP  RH WIND       PRES   REMARKS
MANITOWISH WTR CLOUDY    63  31  30 S17G23    29.72S
ARBOR VITAE    CLOUDY    62  31  31 S12G21    29.73F
WOODRUFF       CLOUDY    62  31  31 S12G21    29.73F
RHINELANDER    CLOUDY    63  35  35 S13       29.75F
EAGLE RIVER    CLOUDY    61  29  29 S12G21    29.75F
LAND O LAKES   CLOUDY    64  26  24 S15G23    29.76F
PHILLIPS       CLOUDY    63  32  31 S13       29.71S
TOMAHAWK       CLOUDY    62  34  34 SE6       29.74F
MEDFORD        PTSUNNY   62  35  36 S12G20    29.73R
MERRILL        CLOUDY    65  33  30 S13       29.74F
$$

WIZ029-030-035-036-043>047-250000-
CENTRAL WISCONSIN

CITY           SKY/WX    TMP DP  RH WIND       PRES   REMARKS
WAUSAU         CLOUDY    66  33  29 SE12      29.72F
MOSINEE        PTSUNNY   66  28  24 SE10G23   29.74F
MARSHFIELD     MOSUNNY   67  29  24 S13       29.71S
STEVENS POINT  CLOUDY    67  28  23 S14G23    29.74F
WAUPACA        MOSUNNY   71  29  21 SE13G21   29.76F
WAUTOMA        CLOUDY    70  30  22 SE16      29.74F
WISC RAPIDS    NOT AVBL
CAMP DOUGLAS   NOT AVBL
$$

WIZ011>013-019>022-031-037>040-048>050-250000-
NORTHEAST WISCONSIN

CITY           SKY/WX    TMP DP  RH WIND       PRES   REMARKS
ANTIGO         CLOUDY    61  37  40 S17G24    29.76F
SHAWANO        CLOUDY    63  45  51 E9        29.79F
OCONTO         CLOUDY    52  40  64 E6        29.83F
STURGEON BAY   MOSUNNY   48  37  65 E7        29.86F
GREEN BAY      CLOUDY    64  35  34 SE22      29.81F
MANITOWOC      NOT AVBL
APPLETON       PTSUNNY   64  30  27 SE17G24   29.78F
CLINTONVILLE   CLOUDY    66  32  28 SE13      29.77F
OSHKOSH        CLOUDY    64  34  32 SE17      29.78F
$$

WIZ032>034-041-042-053>061-250000-
SOUTHWEST WISCONSIN

CITY           SKY/WX    TMP DP  RH WIND       PRES   REMARKS
LA CROSSE      MOSUNNY   71  30  21 S16G22    29.65F
SPARTA         CLOUDY    70  28  20 S16G23    29.70S
VIROQUA        MOSUNNY   67  29  24 S14       29.70F
BOSCOBEL       PTSUNNY   74  24  15 VRB6G20   29.69F
PRAIRIE DU CHI CLOUDY    73  23  15 SE14G22   29.68F
PLATTEVILLE    SUNNY     72  26  17 SE20      29.72F
$$

WIZ056-057-062-063-064-067-068-250000-
SOUTH CENTRAL WISCONSIN

CITY           SKY/WX    TMP DP  RH WIND       PRES   REMARKS
REEDSBURG      MOSUNNY   70  28  21 S15G24    29.73F
BARABOO/DELLS  MOSUNNY   70  26  19 S17       29.74F
LONE ROCK      NOT AVBL
MINERAL POINT  CLOUDY    72  25  17 SE17G23   29.73F
MADISON        CLOUDY    70  27  20 SE16      29.74F
MIDDLETON      CLOUDY    73  23  15 S10       29.75F
WATERTOWN      CLOUDY    67  33  28 SE14      29.79F
MONROE         MOSUNNY   70  27  19 SE17G25   29.75F
JANESVILLE     PTSUNNY   72  25  17 SE17G23   29.76F
$$

WIZ051-052-058>065-066-070>072-250000-
SOUTHEAST WISCONSIN

CITY           SKY/WX    TMP DP  RH WIND       PRES   REMARKS
MILWAUKEE      PTSUNNY   63  33  32 SE12      29.83F
WAUKESHA       SUNNY     64  28  25 SE12G23   29.82F
MILWAUKEE/TIMM SUNNY     66  23  19 SE12G17   29.83F
RACINE         CLOUDY    61  32  33 E7        29.85F
KENOSHA        CLOUDY    63  35  35 E8        29.83F
FOND DU LAC    CLOUDY    65  31  28 SE17G25   29.79F
SHEBOYGAN      CLOUDY    61  35  37 S7        29.83F
WEST BEND      CLOUDY    63  23  22 SE12G20   29.83F
JUNEAU         CLOUDY    64  34  31 SE16      29.80F
$$

LSZ147-162-250000-
LAKE SUPERIOR

STATION/POSITION TIME  TEMP    WIND        PRES    WAVE
                       AIR SEA DIR/SP/G            HT/PER
                 (UTC) (F)     (DEG/KT/KT) (MB)    (FT/S)
DEVILS ISLAND    2200   36      50/ 29/ 31 1007.8F
SAXON HARBOR     2240   40     310/  9/ 11 1006.1S
$$

LMZ867-665-643>646-250000-
LAKE MICHIGAN

STATION/POSITION TIME  TEMP    WIND        PRES    WAVE
                       AIR SEA DIR/SP/G            HT/PER
                 (UTC) (F)     (DEG/KT/KT) (MB)    (FT/S)
CHAMBERS ISLAND  2230   47      70/  6/  9 1011.2F
N MID LAKE BUOY  2150   40 37   90/  8/ 10 1013.8F   2/ 3
NORTHPORT PIER   2240   41     100/  7/  9 1011.9F
SISTER BAY       2106   51     120/ 12/ 15   N/A
KEWAUNEE LAKESHO 2230   44      70/  4/  7 1011.0F
SHEBOYGAN LAKESH 2200   47     140/  8/  9 1011.3F
PORT WASHINGTON  2240   49     110/  3/  4 1011.5F
MILWAUKEE LAKESH 2230   47      40/  1/  2   N/A
S MID LAKE BUOY  2150   48 43   30/  6/  6 1011.8F   1/ 5
KENOSHA   LAKESH 2200   49      30/  3/  3 1010.8
$$

TC  - TEMPERATURE IN CELSIUS
VSB - VISIBILITY IN STATUTE MILES
WCI - WIND CHILL INDEX
HX  - HEAT INDEX




USA.gov is the U.S. government's official web portal to all federal, state and local government web resources and services.